Location: Bleckendorf
(51.9434°N, 11.4316°E)
Time: 11:44:07
(UTC+00:00)

Daily predictions for brighter satellites

Satellite Brightness Start Highest point End
(mag) Time Altitude Azimuth Time Altitude Azimuth Time Altitude Azimuth
Cosmos 1666 Rocket 4.3 19:20:04 10° SSE 19:23:57 34° E 19:27:53 10° NNE
CZ-2C R/B 3.9 19:20:03 10° NNE 19:24:36 53° E 19:29:03 10° S
Resurs 1-3 3.7 19:20:56 10° SSE 19:25:19 85° WSW 19:29:45 10° NNW
SL-16 R/B 3.5 19:23:36 10° NNW 19:28:31 29° NE 19:33:24 10° E
Cosmos 1140 Rocket 4.0 19:26:09 10° S 19:31:00 39° ESE 19:35:52 10° NE
COSMOS 2406 3.2 19:26:59 10° SSW 19:32:43 74° ESE 19:38:27 10° NNE
CENTAUR R/B 4.0 19:29:42 10° SE 19:32:45 14° ESE 19:36:00 10° ENE
Cosmos 1805 Rocket 3.6 19:30:51 10° S 19:35:18 83° E 19:39:48 10° NNE
Cosmos 2369 3.9 19:30:12 10° NNW 19:35:58 79° WSW 19:41:42 10° SSE
H-2A R/B 4.4 19:32:29 10° SW 19:36:31 23° W 19:40:30 10° NW
USA 186 4.3 19:39:06 10° WSW 19:39:43 11° W 19:40:21 10° WNW
Cosmos 2082 Rocket 2.6 19:36:30 10° S 19:41:47 40° ESE 19:47:03 10° NE
SPOT 1/Viking Rocket 4.1 19:38:00 10° SE 19:42:59 46° ENE 19:47:58 10° N
Cosmos 2278 3.8 19:38:39 10° NNW 19:44:25 86° ENE 19:50:08 10° SSE
CZ-2C R/B 3.0 19:40:19 10° N 19:45:29 70° WNW 19:50:39 10° SSW
Intercosmos 25 3.7 19:41:17 10° NNW 19:45:54 66° W 19:49:14 10° S
Cosmos 389 Rocket 4.0 19:45:29 10° NNW 19:48:39 35° W 19:51:50 10° SSW
Cosmos 2322 Rocket 3.4 19:44:31 10° NNW 19:49:36 32° NE 19:54:41 10° ESE
FALCON 9 DEB 4.0 19:47:03 10° SSW 19:50:06 29° SE 19:53:11 10° E
MetOp-B 4.2 19:44:48 10° SSE 19:50:09 78° ENE 19:55:32 10° NNW
Okean 1-7 4.4 19:50:51 10° NNE 19:54:23 24° ENE 19:57:20 13° ESE
Cosmos 1862 4.2 19:50:35 10° SSW 19:54:34 54° WNW 19:58:35 10° N
Cosmos 1633 Rocket 3.2 19:51:02 10° S 19:55:21 57° E 19:59:43 10° NNE
Lacrosse 5 2.0 19:52:11 10° WNW 19:57:17 72° NNE 20:02:05 11° ESE
OBJECT-B 2.7 19:55:05 10° SSW 19:58:01 29° W 20:00:59 10° NNW
Cosmos 614 Rocket 4.1 19:53:46 10° SSW 19:58:56 80° WNW 20:04:12 10° NNE
IGS 5A 3.5 19:54:58 10° SSE 19:59:00 68° ENE 20:03:08 10° N
Cosmos 2360 Rocket 3.7 19:57:29 10° NNW 20:02:12 26° NE 20:06:53 10° E
NOSS 3-2 (A) 3.9 19:58:25 10° S 20:03:34 35° ESE 20:09:22 10° NE
SWAS 4.4 19:59:37 10° SSW 20:03:56 76° ESE 20:08:17 10° NE
USA 267 3.4 19:58:10 10° ENE 20:04:30 49° SE 20:10:48 10° SSW
Cosmos 1867 3.8 19:59:30 10° SSW 20:04:39 45° ESE 20:09:51 10° NE
Cosmos 1707 Rocket 4.1 20:00:33 10° NNW 20:04:50 57° W 20:09:03 10° S
Cosmos 676 Rocket 4.2 20:02:39 10° S 20:07:47 50° ESE 20:12:57 10° NNE
BREEZE-M DEB (TANK) 2.0 20:07:10 10° W 20:09:48 44° S 20:10:42 24° ESE
NOSS 3-2 (C) 4.3 20:06:23 10° SSE 20:11:03 26° ESE 20:16:13 10° ENE
Cosmos 1980 Rocket 2.4 20:05:49 10° NW 20:11:30 70° WSW 20:16:37 13° SSE
Terra 2.7 20:08:56 15° SE 20:12:21 36° ENE 20:16:42 10° N
ATLAS 5 CENTAUR R/B 4.3 20:08:42 10° WNW 20:13:04 22° WSW 20:17:52 10° SSW
Genesis I 3.9 20:10:40 10° NW 20:14:25 47° SW 20:17:19 15° SSE
Cosmos 1437 Rocket 3.6 20:11:33 10° N 20:15:03 33° ENE 20:17:12 19° ESE
Cosmos 1238 Rocket 2.7 20:14:51 21° SSE 20:16:21 35° E 20:19:07 10° NNE
Okean 1 3.7 20:14:40 10° N 20:18:38 51° ENE 20:21:16 20° SE
Cosmos 921 Rocket 2.9 20:14:29 10° NNW 20:18:44 83° ENE 20:21:49 18° SSE
Cosmos 1470 Rocket 3.6 20:15:47 10° S 20:20:04 58° E 20:24:24 10° NNE
ERS-1 Rocket 3.1 20:16:09 16° SSE 20:20:06 62° ENE 20:25:05 10° N
deb Kosmos-1763 3.9 20:16:40 10° SSW 20:20:16 74° ESE 20:23:57 10° NNE
Resurs 01 Rocket 2.9 20:16:16 10° SSW 20:20:23 38° W 20:24:34 10° NNW
Cosmos 841 Rocket 4.5 20:15:35 10° NNW 20:20:23 35° NE 20:24:05 16° ESE
Cosmos 1184 Rocket 2.7 20:20:52 10° S 20:24:08 78° E 20:27:26 10° NNE
USA 276 2.1 20:21:24 10° W 20:24:32 61° S 20:26:24 22° ESE
Meteor 1-19 Rocket 4.3 20:19:17 10° N 20:24:40 59° ENE 20:28:37 18° SSE
Cosmos 405 Rocket 3.1 20:22:43 20° SSE 20:24:55 41° E 20:28:28 10° NNE
Cosmos 468 Rocket 4.1 20:20:24 10° NNW 20:25:44 70° ENE 20:29:30 19° SE
Cosmos 1697 Rocket 4.1 20:21:00 10° NW 20:25:57 33° WSW 20:30:54 10° SSW
Cosmos 1934 Rocket 4.1 20:20:34 10° S 20:26:56 84° W 20:33:22 10° N
Cosmos 1833 Rocket 3.1 20:22:27 10° SW 20:28:03 67° NW 20:33:42 10° NNE
Cosmos 2333 Rocket 4.1 20:24:37 10° NNW 20:29:00 22° NNE 20:33:23 10° E
Cosmos 1862 Rocket 4.0 20:27:19 10° NNW 20:31:45 61° W 20:35:46 12° S
GP-B 3.2 20:27:59 10° N 20:32:26 76° W 20:36:50 10° S
X-37B 1.9 20:31:38 10° SW 20:34:11 23° S 20:34:11 23° S
H-2A R/B 3.7 20:31:03 10° N 20:35:10 69° WNW 20:39:16 10° SSW
SL-4 R/B 1.8 20:32:26 10° WSW 20:36:17 56° SSE 20:39:36 12° E
SPOT 5 2.6 20:33:39 21° SSE 20:36:26 71° ENE 20:40:50 10° NNW
ERBS 3.9 20:36:27 10° WNW 20:39:33 34° N 20:42:37 10° ENE
Cosmos 1954 Rocket 4.0 20:34:18 10° SSW 20:39:37 84° ESE 20:44:59 10° NNE
Spot 2 Rocket 4.1 20:37:06 12° S 20:41:49 55° W 20:46:51 10° NNW
USA 234 3.4 20:37:03 19° SE 20:41:53 66° SW 20:48:25 10° WNW
FAST 4.4 20:39:16 10° N 20:42:02 66° ENE 20:42:48 40° SE
Cosmos 1515 3.7 20:40:09 10° N 20:43:59 66° ENE 20:45:49 29° SSE
ATLAS 3B R/B 3.8 20:48:20 19° ESE 20:49:15 20° ESE 20:53:47 10° ENE
SAR-Lupe-2 3.6 20:46:22 10° NNE 20:49:56 58° ESE 20:51:30 29° S
Cosmos 44 3.4 20:48:57 10° NW 20:53:48 70° NE 20:56:43 25° SE
Meteor 2-4 Rocket 3.8 20:48:08 10° N 20:53:49 64° ENE 20:57:01 25° SSE
Meteor 1-18 Rocket 4.3 20:49:56 10° NNW 20:55:33 77° W 20:59:26 20° S
CARTOSAT-1 3.8 20:53:40 22° S 20:56:23 66° WSW 21:00:43 10° NNW
Iridium 4 Rocket 3.8 20:55:21 28° SE 20:56:47 36° E 21:00:39 10° NNE
USA 238 DEB 3.6 20:53:56 10° SSW 21:00:33 72° SE 21:07:30 10° NE
USA 238 3.6 20:54:04 10° SSW 21:00:39 72° SE 21:07:36 10° NE
Cosmos 1933 Rocket 3.6 20:57:38 16° SSW 21:01:07 81° WNW 21:05:35 10° N
Cosmos 1763 Rocket 3.7 21:03:20 10° NNW 21:08:37 66° WSW 21:11:34 26° S
Aureole 2 4.5 21:07:16 28° SSW 21:09:03 80° ESE 21:13:11 10° NNE
Cosmos 1242 Rocket 4.1 21:08:36 10° NNE 21:11:32 22° ENE 21:12:17 21° E
Cosmos 1869 Rocket 3.7 21:10:01 34° SSE 21:11:42 57° E 21:16:05 10° NNE
SL-16 R/B 2.3 21:07:30 10° NNW 21:13:11 75° WSW 21:16:10 29° SSE
Cosmos 2100 Rocket 4.0 21:12:40 25° S 21:16:19 66° E 21:22:25 10° NNE
Cosmos 1703 Rocket 4.1 21:15:31 10° NNW 21:19:46 53° W 21:21:59 26° SSW
Cosmos 2219 Rocket 3.5 21:14:57 10° NNW 21:20:04 33° NE 21:23:55 16° E
CENTAUR R/B 2.5 21:15:50 10° SSW 21:21:47 64° SE 21:28:53 10° NE
Cosmos 2082 Rocket 3.3 21:20:24 10° WSW 21:25:51 45° NW 21:31:19 10° NNE
FALCON 9 DEB 3.0 21:23:22 10° WSW 21:26:52 87° S 21:28:47 25° ENE
Okean 3 3.4 21:23:56 10° N 21:28:15 76° ENE 21:29:33 44° SSE
Cosmos 2173 Rocket 3.9 21:25:03 27° S 21:28:38 75° E 21:34:45 10° NNE
Okean 1-7 3.8 21:28:03 10° NNW 21:32:11 44° W 21:34:11 26° SSW
ALOS 2 4.0 21:32:14 23° E 21:33:42 28° ENE 21:37:27 10° N
Cosmos 2237 4.2 21:27:57 10° NNW 21:33:43 85° ENE 21:36:15 35° SE
Cosmos 2322 Rocket 2.4 21:28:26 10° NW 21:34:05 64° WSW 21:36:38 33° S
Cosmos 1725 Rocket 4.3 21:33:23 32° SSE 21:36:03 52° E 21:42:10 10° NNE
SL-27 R/B 2.2 21:38:44 71° SSW 21:39:04 87° WNW 21:42:24 10° NNE
Lacrosse 5 2.6 21:35:21 10° WNW 21:40:03 38° SW 21:41:15 33° SSW
Cosmos 1850 Rocket 4.2 21:41:29 15° SW 21:45:52 71° WNW 21:51:10 10° NNE
Cosmos 1733 Rocket 3.5 21:46:13 41° ESE 21:46:47 44° E 21:51:00 10° NNE
Cosmos 2360 Rocket 2.1 21:41:13 10° NNW 21:46:56 87° WSW 21:49:10 39° SSE
Cosmos 2016 Rocket 4.0 21:44:24 33° S 21:47:25 72° E 21:53:48 10° NNE
USA 267 3.4 21:41:15 10° ENE 21:47:49 79° NNW 21:54:22 10° WSW
Cosmos 1459 Rocket 4.0 21:43:59 26° SSW 21:47:49 83° W 21:54:15 10° N
Terra 2.9 21:47:50 23° SW 21:50:06 36° W 21:54:31 10° NNW
Cosmos 2221 Rocket 3.6 21:47:16 10° NNW 21:51:46 80° W 21:52:58 48° S
Cosmos 1500 3.6 21:51:07 40° SW 21:52:10 57° WNW 21:55:53 10° N
Thor Agena Rocket 3.9 21:47:19 10° NNE 21:52:12 45° E 21:53:15 39° SE
NOSS 3-2 (A) 3.9 21:48:09 10° WSW 21:54:01 66° NW 22:00:53 10° NE
Cosmos 1980 Rocket 4.5 21:51:53 10° WNW 21:54:27 13° W 21:57:00 10° WSW
COSMOS 2428 3.4 21:49:41 10° NNW 21:55:14 47° NE 21:58:11 26° ESE
Cosmos 540 Rocket 3.9 21:51:02 10° NNW 21:56:03 51° WSW 21:57:48 36° SSW
ATLAS 5 CENTAUR R/B 2.2 21:55:02 10° WNW 21:57:48 58° SW 21:58:55 44° SSE
Cosmos 2061 Rocket 3.9 21:54:51 34° S 21:57:48 83° E 22:04:02 10° NNE
USA 276 4.3 21:57:41 10° W 21:58:45 18° WSW 21:58:45 18° WSW
Meteor 1-11 Rocket 3.7 21:58:34 39° S 22:00:47 78° E 22:06:35 10° NNE
Cosmos 1864 Rocket 4.4 21:58:17 36° S 22:00:58 76° E 22:07:14 10° NNE
NOSS 3-2 (C) 3.5 21:55:17 10° SW 22:01:09 81° NW 22:08:01 10° NE
Cosmos 841 Rocket 4.2 21:57:26 10° NW 22:02:24 45° WSW 22:04:10 33° SSW
Cosmos 1666 2.4 22:03:21 78° S 22:03:35 88° E 22:07:21 10° N
BREEZE-M DEB (TANK) 3.7 22:00:33 10° W 22:04:32 67° S 22:19:24 10° ESE
MTI 4.4 22:05:42 10° N 22:08:43 48° WNW 22:08:47 48° WNW
Cosmos 1743 3.7 22:10:20 34° E 22:10:20 34° E 22:13:39 10° NNE
Cosmos 1802 Rocket 4.2 22:08:28 27° SSW 22:12:06 70° WNW 22:18:28 10° N
Cosmos 2237 Rocket 3.6 22:08:17 10° NNW 22:13:18 31° NE 22:17:20 14° E
Cosmos 2333 Rocket 2.3 22:08:33 10° NNW 22:14:21 71° ENE 22:16:34 38° SE
Cosmos 1271 Rocket 3.0 22:10:46 10° N 22:14:29 52° ENE 22:14:37 52° E
Cosmos 2084 Rocket 3.4 22:12:58 37° SW 22:14:35 83° NW 22:18:56 10° NE
COSMOS 2487 3.4 22:16:14 36° ENE 22:16:14 36° ENE 22:18:39 10° NNE
SL-4 R/B 1.9 22:12:02 10° W 22:15:11 60° W 22:15:11 60° W
Cosmos 1908 Rocket 4.4 22:15:54 35° E 22:16:04 35° E 22:20:04 10° NNE
ERBS 3.5 22:13:10 10° WNW 22:16:20 40° NNE 22:17:14 32° NE
Cosmos 2233 Rocket 4.0 22:18:13 41° SSE 22:20:30 70° E 22:26:49 10° NNE
Cosmos 1378 Rocket 3.5 22:18:03 10° N 22:22:32 81° ENE 22:23:11 64° SSE
CRYOSAT 2 4.5 22:18:26 10° N 22:23:19 69° W 22:24:48 44° SSW
Cosmos 1066 Rocket 4.3 22:19:51 10° NNW 22:25:34 70° W 22:27:21 44° SSW
USA 234 4.5 22:24:24 22° SW 22:25:45 23° SW 22:30:48 10° WNW
Cosmos 1536 2.9 22:25:42 59° WSW 22:26:12 66° WNW 22:30:10 10° N
Okean 2 4.0 22:23:21 10° N 22:27:18 43° ENE 22:27:42 41° E
Cosmos 1378 3.0 22:27:05 10° NNW 22:30:46 83° NW 22:30:46 83° NW
Helios 1A 3.8 22:31:45 36° E 22:32:30 40° ENE 22:36:28 10° N
MOS 1-B Rocket 4.1 22:31:39 10° NNE 22:37:19 64° WNW 22:40:00 31° SW
Cosmos 44 Rocket 3.4 22:32:33 10° NW 22:37:32 78° NE 22:38:57 48° ESE
Cosmos 1975 Rocket 3.7 22:34:13 10° N 22:38:33 44° ENE 22:39:16 41° E
ATLAS 3B R/B 2.5 22:35:32 31° SSW 22:38:56 78° SE 22:45:38 10° NE
Cosmos 1486 Rocket 4.0 22:40:49 55° SSE 22:41:44 66° ESE 22:46:55 10° NNE
Cosmos 1242 Rocket 3.7 22:43:10 10° NNW 22:46:17 33° W 22:46:17 33° W
Cosmos 1707 4.3 22:46:42 10° N 22:50:04 26° ENE 22:50:33 26° E
Lacrosse 4 Rocket 1.3 22:53:53 80° SE 22:53:53 80° SE 22:58:05 10° NE
Cosmos 2227 Rocket 4.1 22:53:33 14° ESE 22:54:12 15° E 22:57:10 10° ENE
Cosmos 1975 3.2 22:54:57 50° E 22:54:57 50° E 22:58:43 10° NNE
Cosmos 1842 3.3 22:52:04 10° N 22:55:59 72° ENE 22:55:59 72° ENE
SL-16 R/B 4.2 22:53:26 10° WNW 22:56:19 14° W 22:58:01 13° WSW
Cosmos 2344 4.4 22:50:15 10° NW 22:59:08 74° NE 23:11:27 10° SE
YAOGAN 11 4.4 22:59:08 53° ESE 22:59:56 63° ENE 23:04:30 10° N
Nimbus 7 Rocket 4.3 22:55:28 10° NNE 23:01:22 86° WNW 23:03:21 45° SSW
Cosmos 2322 4.1 22:56:38 10° NW 23:02:02 47° WSW 23:03:03 42° SW
Sich 1 Rocket 4.4 23:02:16 37° E 23:02:27 37° E 23:06:32 10° NNE
Cosmos 1544 3.3 23:03:45 66° NE 23:03:45 66° NE 23:07:01 10° NNE
Cosmos 2219 Rocket 2.3 22:58:48 10° NW 23:04:25 62° WSW 23:05:36 51° SSW
Cosmos 1833 4.4 23:03:14 34° SW 23:05:42 68° WNW 23:11:24 10° NNE
Meteor 1-21 4.2 23:02:50 10° NNW 23:08:42 84° ENE 23:10:20 50° SSE
EO 1 Del DPAF 4.1 23:05:32 10° N 23:09:04 39° WNW 23:09:28 38° W
Cosmos 773 Rocket 4.1 23:04:17 10° NNW 23:09:25 66° ENE 23:10:53 45° SE
SL-16 R/B 4.3 23:04:31 10° ESE 23:09:31 26° NE 23:14:30 10° N
ALOS 2 3.2 23:09:38 41° WSW 23:09:54 41° W 23:14:05 10° NNW
CENTAUR R/B 3.6 23:06:36 10° WSW 23:12:49 49° NNW 23:20:11 10° NE
Cosmos 1025 Rocket 3.9 23:09:31 10° N 23:13:33 38° ENE 23:14:16 36° E
NOSS 0 Rocket 3.9 23:09:33 10° NNW 23:15:50 86° WSW 23:18:00 44° SSE
Cosmos 2322 Rocket 4.4 23:14:58 10° WNW 23:17:01 12° W 23:18:26 11° WSW
Cosmos 1437 4.4 23:15:32 10° N 23:17:36 28° NE 23:17:36 28° NE
PSLV R/B 4.4 23:14:36 10° NNE 23:19:05 43° E 23:19:33 41° ESE
Cosmos 968 Rocket 3.5 23:18:42 50° SW 23:19:59 75° WNW 23:25:09 10° NNE
SL-16 R/B 3.4 23:19:45 10° NNW 23:25:05 38° NE 23:29:54 12° ESE
Cosmos 2360 Rocket 4.0 23:26:33 10° WNW 23:30:07 17° W 23:30:55 17° WSW
USA 267 3.8 23:24:10 10° ENE 23:30:34 58° N 23:36:58 10° WNW
Helios 1B rocket 3.4 23:27:18 10° NNE 23:31:04 34° E 23:31:06 34° E
MINOTAUR 4 R/B 4.2 23:37:46 69° N 23:37:46 69° N 23:40:57 10° NNW
Cosmos 1354 Rocket 4.0 23:37:57 53° SSW 23:39:15 85° WNW 23:44:38 10° NNE
COSMOS 2428 3.3 23:34:10 10° NW 23:39:29 40° WSW 23:40:11 38° SW
Cosmos 1536 Rocket 3.8 23:36:55 10° N 23:41:12 57° ENE 23:41:51 50° ESE
Timation 2 Rocket 4.0 23:42:46 46° S 23:44:21 61° ESE 23:50:17 10° NE
Cosmos 1782 Rocket 3.8 23:45:29 53° WSW 23:45:56 56° WNW 23:50:13 10° N
Cosmos 1743 4.4 23:45:24 24° W 23:45:57 25° WNW 23:49:13 10° NNW
Meteor 2-9 Rocket 4.3 23:45:25 47° SW 23:47:01 71° WNW 23:52:47 10° N
Cosmos 2297 Rocket 2.8 23:46:33 36° SE 23:47:40 40° ESE 23:52:54 10° NE
Cosmos 1980 3.6 23:43:08 10° NNW 23:48:49 72° WSW 23:50:13 51° S
Cosmos 2026 Rocket 4.3 23:46:36 10° N 23:52:38 60° ENE 23:55:26 32° SE
Cosmos 2219 3.5 23:53:03 43° SSE 23:54:15 51° ESE 23:59:41 10° NE
